Vertical_Velocity
1 0 -1 1 -2 -0 1 -0 0 -1 -1 -1 -0 -1 -1 -2 -0 -1 -3 -1 -2 -2 -1 -2 -1 -2 -0 -2 -2 -1 -3 -2 -1
-1 1 -0 0 -0 0 -1 1 0 -1 -1 -2 -1 -1 -1 0 -0 -1 -1 -3 -1 -1 -1 -1 -1 -0 -1 -0 1 -0 2 1 -1
-0 -2 0 0 1 1 -1 -1 -0 -0 -2 -1 -2 -0 -1 -0 -3 -0 1 0 -0 -1 -1 -2 -1 -0 0 -0 1 -0 -1 -1 1
-2 -1 1 1 1 0 0 -0 0 -1 -0 -1 1 0 0 -1 -1 -1 1 -1 -1 -2 -1 -1 -1 -1 -1 -1 0 0 -0 -1 -1
-2 -0 -0 0 1 -0 -1 -0 -1 -1 -1 -1 0 1 0 1 -0 0 -0 -2 -1 0 -1 -3 -2 -2 -1 -2 -2 -1 -2 -1 -1
-0 -1 1 -2 -1 -0 -1 0 -1 -3 -2 -2 -0 1 1 -2 -1 1 -0 -0 -2 -3 -0 -2 -2 -2 -2 -2 -1 -1 -1 -1 0
-0 -1 -0 -2 -0 -1 0 -1 -1 -2 -1 -1 -1 -1 -1 -0 -1 0 -1 -0 -2 4 -1 -0 -1 -1 -1 -2 -1 -1 0 -1 -3
-1 0 -0 -0 -1 -0 -0 -0 -1 -1 0 0 -1 1 -0 -1 -2 -1 -1 -0 -1 -4 -2 0 0 0 -0 -1 -1 -1 -0 0 0
0 -1 -0 0 1 0 0 -1 -2 -1 -0 -1 1 0 -0 -0 -1 -1 -1 -0 -1 -3 -3 1 0 0 -0 -1 1 0 -0 0 -0
-1 -1 -1 -0 1 1 0 -1 -1 0 -0 -0 -1 -1 -1 0 0 0 -2 -1 0 0 -1 -2 -1 -0 -0 0 0 -0 -1 -1 -1
-1 -1 -1 -0 0 0 -0 0 -0 -0 -1 -1 -0 -1 0 -0 1 0 -1 -1 -1 -0 -1 1 -1 -1 -1 -1 -1 1 -0 -0 -0
-0 -0 0 0 0 -0 -1 0 -1 -0 -0 -0 -0 -1 0 -1 -1 -1 -0 -1 -2 -0 -1 -0 0 -0 -1 0 -1 -2 -1 -1 1
-0 0 0 1 -0 -1 -1 -1 0 -2 -1 1 2 -1 -2 -0 -0 -1 -0 -1 0 -2 -0 -0 1 1 1 0 -2 1 -2 -3 -1
-0 0 1 1 -1 -1 0 -1 -1 -1 1 -1 1 0 -1 -1 -3 -0 -1 -0 -1 1 -2 1 -0 0 -1 1 4 0 -2 -2 -2
0 0 -0 0 -1 1 -0 -1 1 -2 1 -3 -1 0 -1 -2 -2 0 -1 1 -1 -0 2 0 -3 -1 -0 -2 -0 2 4 -0 -2
-0 0 1 1 -0 2 1 1 1 -2 2 0 -2 -3 -3 1 -0 -0 -0 0 0 0 2 0 -0 -1 -1 1 0 0 1 7 4
-1 1 2 2 -1 -0 2 3 1 -3 2 1 3 -8 -8 4 -3 -1 -1 -3 -3 1 1 0 0 1 2 -1 0 1 -0 2 7
1 1 0 2 2 -1 3 3 2 3 1 3 5 -0 -4 1 1 -3 -2 1 1 2 1 -1 0 0 -0 -1 -0 1 1 3 4
-1 -1 -1 -0 0 -1 1 2 1 5 -1 -1 2 3 4 -2 -4 -3 -3 -2 1 -1 -0 2 1 0 1 1 -1 1 0 -3 -2
-1 -1 0 -0 -1 0 -0 -0 0 3 4 -0 -0 0 3 3 3 0 -5 -4 2 0 -0 0 0 -1 0 1 2 1 -1 0 -2
Height
1574 1574 1573 1573 1573 1573 1573 1574 1574 1574 1574 1575 1574 1574 1574 1573 1574 1575 1574 1573 1571 1571 1570 1570 1569 1568 1566 1566 1565 1564 1563 1562 1561
1575 1575 1576 1575 1575 1575 1576 1576 1576 1576 1576 1576 1576 1576 1575 1575 1575 1575 1575 1573 1572 1571 1571 1570 1570 1569 1568 1567 1566 1565 1565 1564 1563
1576 1577 1577 1578 1578 1577 1578 1578 1577 1578 1578 1578 1578 1577 1577 1576 1576 1575 1575 1573 1572 1572 1571 1571 1570 1569 1567 1566 1566 1565 1564 1564 1564
1577 1578 1579 1579 1579 1579 1579 1580 1579 1579 1580 1580 1579 1578 1578 1577 1577 1576 1576 1574 1573 1573 1573 1571 1570 1569 1567 1565 1565 1564 1564 1563 1563
1579 1579 1580 1580 1580 1580 1580 1580 1580 1580 1580 1580 1580 1579 1578 1578 1577 1577 1576 1575 1574 1573 1573 1572 1570 1569 1567 1566 1564 1563 1562 1561 1561
1579 1579 1580 1580 1580 1580 1580 1579 1579 1579 1579 1580 1579 1579 1579 1578 1578 1577 1576 1575 1574 1574 1573 1572 1570 1569 1567 1565 1564 1563 1562 1560 1560
1579 1579 1579 1579 1580 1580 1580 1580 1579 1579 1579 1579 1579 1579 1578 1578 1577 1577 1575 1574 1574 1574 1573 1572 1570 1569 1567 1565 1564 1563 1562 1561 1560
1578 1578 1578 1578 1579 1579 1579 1579 1579 1578 1578 1578 1578 1578 1577 1577 1576 1576 1575 1573 1572 1572 1572 1571 1569 1568 1566 1565 1563 1562 1561 1561 1560
1576 1577 1577 1577 1577 1578 1578 1578 1577 1577 1577 1576 1576 1576 1575 1575 1574 1574 1573 1572 1571 1570 1570 1570 1568 1567 1565 1564 1562 1561 1560 1560 1559
1575 1575 1575 1576 1576 1576 1576 1576 1576 1575 1575 1575 1574 1574 1573 1573 1572 1571 1571 1570 1570 1569 1568 1567 1566 1565 1564 1563 1561 1560 1559 1559 1558
1573 1573 1574 1574 1574 1574 1574 1574 1574 1574 1573 1573 1572 1572 1571 1570 1570 1569 1568 1568 1567 1567 1566 1566 1564 1563 1562 1560 1559 1558 1558 1557 1556
1570 1571 1572 1572 1572 1572 1572 1572 1572 1571 1571 1571 1570 1569 1569 1568 1567 1566 1565 1564 1564 1563 1563 1563 1562 1561 1560 1559 1558 1556 1555 1555 1555
1568 1569 1570 1570 1570 1570 1570 1570 1570 1569 1569 1569 1568 1567 1566 1565 1564 1563 1562 1561 1560 1559 1559 1559 1558 1558 1558 1558 1556 1555 1554 1553 1553
1566 1567 1567 1567 1567 1567 1567 1567 1567 1567 1567 1566 1565 1564 1563 1562 1561 1560 1559 1557 1557 1556 1555 1555 1554 1554 1554 1554 1554 1553 1552 1551 1550
1563 1563 1564 1564 1564 1563 1563 1563 1563 1563 1563 1562 1560 1559 1558 1557 1557 1556 1555 1553 1552 1551 1550 1549 1549 1549 1549 1549 1549 1549 1549 1548 1547
1559 1559 1559 1559 1559 1559 1559 1559 1558 1558 1558 1556 1555 1554 1553 1552 1551 1551 1550 1549 1547 1546 1545 1545 1545 1544 1543 1544 1544 1544 1545 1545 1544
1555 1555 1555 1555 1554 1554 1554 1554 1553 1552 1553 1552 1551 1550 1551 1550 1547 1546 1546 1545 1544 1543 1542 1542 1541 1540 1539 1538 1538 1539 1539 1540 1541
1550 1550 1550 1549 1549 1548 1548 1548 1547 1547 1547 1547 1547 1546 1545 1544 1544 1542 1542 1541 1540 1539 1538 1538 1537 1536 1535 1534 1534 1534 1534 1535 1535
1543 1544 1543 1543 1542 1542 1542 1541 1541 1541 1540 1540 1540 1540 1539 1539 1538 1537 1537 1536 1535 1534 1534 1533 1532 1531 1531 1529 1529 1528 1528 1528 1529
1537 1538 1537 1537 1537 1536 1535 1535 1534 1534 1534 1533 1534 1534 1533 1533 1532 1530 1531 1532 1532 1531 1530 1530 1528 1527 1526 1525 1524 1524 1523 1522 1522